METAR UND TAF INFORMATION
ETNL 252020Z 29007KT 9999 FEW025 03/02 Q1021 BLU+

 FLUGHAFENKARTE

 RUNWAY INFORMATION
Runway 10 Runway length 8202 ft Runway width 148 ft
Runway elevation 138 ft Runway displaced threshold 0 ft Runway heading 98
Runway 28 Runway length 8202 ft Runway width 148 ft
Runway elevation 110 ft Runway displaced threshold 0 ft Runway heading 278

 AIRPORT FREQUENCIES
Type ACC Name BERLIN RAD Frequency 126.175 MHZ
Type INFO Name BERLIN INF Frequency 132.65 MHZ
Type RDR Name RADAR Frequency 34.4 MHZ
Type RDR Name RADAR Frequency 123.3 MHZ
Type TWR Name TWR Frequency 118.425 MHZ

 AIRPORT NEAR NAVIGATION AIDS
Type TACAN Name Laage Frequency 108250 KHZ